Time,TemperatureF,DewpointF,PressureIn,WindDirection,WindDirectionDegrees,WindSpeedMPH,WindSpeedGustMPH,Humidity,HourlyPrecipIn,Conditions,Clouds,dailyrainin,SoftwareType,DateUTC
2013-04-08 00:04:00,40.2,31.2,29.63,North,5,0.0,4.0,70,0.00,,SKC,0.00,VWS V14.00,2013-04-08 06:04:00,
2013-04-08 00:09:00,39.8,30.8,29.63,North,5,0.0,4.0,70,0.00,,SKC,0.00,VWS V14.00,2013-04-08 06:09:00,
2013-04-08 00:14:00,39.7,30.4,29.64,North,5,0.0,4.0,69,0.00,,SKC,0.00,VWS V14.00,2013-04-08 06:14:00,
2013-04-08 00:20:00,39.7,30.4,29.63,NNE,14,1.0,4.0,69,0.00,,SKC,0.00,VWS V14.00,2013-04-08 06:20:00,
2013-04-08 00:25:00,40.0,31.0,29.62,NNE,15,0.0,4.0,70,0.00,,SKC,0.00,VWS V14.00,2013-04-08 06:25:00,
2013-04-08 00:30:00,39.7,30.4,29.62,NNE,15,0.0,4.0,69,0.00,,SKC,0.00,VWS V14.00,2013-04-08 06:30:00,
2013-04-08 00:35:00,39.6,30.3,29.63,NNE,15,0.0,3.0,69,0.00,,SKC,0.00,VWS V14.00,2013-04-08 06:35:00,
2013-04-08 00:41:00,39.4,31.1,29.63,NNE,15,3.0,3.0,72,0.00,,SKC,0.00,VWS V14.00,2013-04-08 06:41:00,
2013-04-08 00:46:00,39.1,30.2,29.63,NNE,15,0.0,3.0,70,0.00,,SKC,0.00,VWS V14.00,2013-04-08 06:46:00,
2013-04-08 00:51:00,39.3,31.4,29.63,NNE,15,0.0,3.0,73,0.00,,SKC,0.00,VWS V14.00,2013-04-08 06:51:00,
2013-04-08 00:57:00,39.2,30.6,29.63,NNE,15,0.0,3.0,71,0.00,,SKC,0.00,VWS V14.00,2013-04-08 06:57:00,
2013-04-08 01:02:00,39.1,29.8,29.63,NNE,15,0.0,3.0,69,0.00,,SKC,0.00,VWS V14.00,2013-04-08 07:02:00,
2013-04-08 01:07:00,39.2,29.5,29.63,NNE,15,1.0,1.0,68,0.00,,SKC,0.00,VWS V14.00,2013-04-08 07:07:00,
2013-04-08 01:12:00,39.2,30.6,29.63,NNE,15,1.0,2.0,71,0.00,,SKC,0.00,VWS V14.00,2013-04-08 07:12:00,
2013-04-08 01:18:00,39.2,30.6,29.63,NNE,15,0.0,2.0,71,0.00,,SKC,0.00,VWS V14.00,2013-04-08 07:18:00,
2013-04-08 01:23:00,39.2,30.6,29.62,NNE,15,2.0,2.0,71,0.00,,SKC,0.00,VWS V14.00,2013-04-08 07:23:00,
2013-04-08 01:29:00,39.1,30.9,29.62,NNE,15,2.0,2.0,72,0.00,,SKC,0.00,VWS V14.00,2013-04-08 07:29:00,
2013-04-08 01:34:00,38.9,31.0,29.63,NNE,15,0.0,2.0,73,0.00,,SKC,0.00,VWS V14.00,2013-04-08 07:34:00,
2013-04-08 01:39:00,38.9,30.0,29.62,NNE,15,1.0,2.0,70,0.00,,SKC,0.00,VWS V14.00,2013-04-08 07:39:00,
2013-04-08 01:44:00,38.9,30.7,29.62,NNE,15,0.0,4.0,72,0.00,,SKC,0.00,VWS V14.00,2013-04-08 07:44:00,
2013-04-08 01:49:00,38.5,31.0,29.62,NNE,15,0.0,4.0,74,0.00,,SKC,0.00,VWS V14.00,2013-04-08 07:49:00,
2013-04-08 01:54:00,38.2,30.7,29.61,NNE,15,0.0,4.0,74,0.00,,SKC,0.00,VWS V14.00,2013-04-08 07:54:00,
2013-04-08 01:59:00,38.2,29.3,29.61,NE,53,4.0,4.0,70,0.00,,SKC,0.00,VWS V14.00,2013-04-08 07:59:00,
2013-04-08 02:04:00,39.6,29.9,29.60,ENE,59,0.0,3.0,68,0.00,,SKC,0.00,VWS V14.00,2013-04-08 08:04:00,
2013-04-08 02:10:00,40.6,28.2,29.60,ENE,70,4.0,6.0,61,0.00,,SKC,0.00,VWS V14.00,2013-04-08 08:10:00,
2013-04-08 02:15:00,41.8,28.5,29.59,ENE,61,2.0,6.0,59,0.00,,SKC,0.00,VWS V14.00,2013-04-08 08:15:00,
2013-04-08 02:20:00,42.4,27.4,29.59,NE,35,3.0,6.0,55,0.00,,SKC,0.00,VWS V14.00,2013-04-08 08:20:00,
2013-04-08 02:26:00,43.4,28.3,29.58,NNE,32,3.0,7.0,55,0.00,,SKC,0.00,VWS V14.00,2013-04-08 08:26:00,
2013-04-08 02:31:00,43.5,29.3,29.58,NE,37,1.0,7.0,57,0.00,,SKC,0.00,VWS V14.00,2013-04-08 08:31:00,
2013-04-08 02:37:00,42.8,29.5,29.57,NE,38,1.0,3.0,59,0.00,,SKC,0.00,VWS V14.00,2013-04-08 08:37:00,
2013-04-08 02:43:00,42.1,30.0,29.57,NE,38,0.0,3.0,62,0.00,,SKC,0.00,VWS V14.00,2013-04-08 08:43:00,
2013-04-08 02:48:00,41.6,28.8,29.57,NE,38,1.0,3.0,60,0.00,,SKC,0.00,VWS V14.00,2013-04-08 08:48:00,
2013-04-08 02:53:00,41.4,29.8,29.56,NE,38,0.0,3.0,63,0.00,,SKC,0.00,VWS V14.00,2013-04-08 08:53:00,
2013-04-08 02:58:00,41.0,27.4,29.56,ENE,57,2.0,3.0,58,0.00,,SKC,0.00,VWS V14.00,2013-04-08 08:58:00,
2013-04-08 03:04:00,40.7,29.5,29.56,ENE,57,0.0,3.0,64,0.00,,SKC,0.00,VWS V14.00,2013-04-08 09:04:00,
2013-04-08 03:10:00,40.6,28.6,29.55,ESE,111,2.0,4.0,62,0.00,,SKC,0.00,VWS V14.00,2013-04-08 09:10:00,
2013-04-08 03:15:00,40.5,28.9,29.55,NE,48,1.0,4.0,63,0.00,,SKC,0.00,VWS V14.00,2013-04-08 09:15:00,
2013-04-08 03:20:00,40.4,28.0,29.55,NE,48,0.0,4.0,61,0.00,,SKC,0.00,VWS V14.00,2013-04-08 09:20:00,
2013-04-08 03:27:00,40.4,29.6,29.54,NE,51,0.0,4.0,65,0.00,,SKC,0.00,VWS V14.00,2013-04-08 09:27:00,
2013-04-08 03:32:00,40.2,29.4,29.53,NE,51,0.0,4.0,65,0.00,,SKC,0.00,VWS V14.00,2013-04-08 09:32:00,
2013-04-08 03:37:00,40.0,28.8,29.53,NE,51,0.0,2.0,64,0.00,,SKC,0.00,VWS V14.00,2013-04-08 09:37:00,
2013-04-08 03:42:00,40.0,28.8,29.53,NE,51,0.0,2.0,64,0.00,,SKC,0.00,VWS V14.00,2013-04-08 09:42:00,
2013-04-08 03:48:00,40.0,28.4,29.53,NE,51,0.0,3.0,63,0.00,,SKC,0.00,VWS V14.00,2013-04-08 09:48:00,
2013-04-08 03:53:00,40.0,28.8,29.52,NE,51,3.0,3.0,64,0.00,,SKC,0.00,VWS V14.00,2013-04-08 09:53:00,
2013-04-08 03:59:00,39.9,29.9,29.53,NE,51,0.0,3.0,67,0.00,,SKC,0.00,VWS V14.00,2013-04-08 09:59:00,
2013-04-08 04:04:00,39.7,28.5,29.52,NE,51,2.0,4.0,64,0.00,,SKC,0.00,VWS V14.00,2013-04-08 10:04:00,
2013-04-08 04:09:00,39.6,29.9,29.51,NE,51,0.0,4.0,68,0.00,,SKC,0.00,VWS V14.00,2013-04-08 10:09:00,
2013-04-08 04:14:00,39.2,29.2,29.51,NE,42,3.0,5.0,67,0.00,,SKC,0.00,VWS V14.00,2013-04-08 10:14:00,
2013-04-08 04:20:00,39.2,29.5,29.51,NE,50,0.0,5.0,68,0.00,,SKC,0.00,VWS V14.00,2013-04-08 10:20:00,
2013-04-08 04:25:00,39.3,28.9,29.51,NE,50,0.0,5.0,66,0.00,,SKC,0.00,VWS V14.00,2013-04-08 10:25:00,
2013-04-08 04:30:00,39.2,29.2,29.52,East,88,0.0,5.0,67,0.00,,SKC,0.00,VWS V14.00,2013-04-08 10:30:00,
2013-04-08 04:36:00,39.6,28.1,29.51,East,88,0.0,3.0,63,0.00,,SKC,0.00,VWS V14.00,2013-04-08 10:36:00,
2013-04-08 04:41:00,39.8,29.0,29.51,East,88,0.0,3.0,65,0.00,,SKC,0.00,VWS V14.00,2013-04-08 10:41:00,
2013-04-08 04:46:00,39.8,29.0,29.51,East,88,0.0,3.0,65,0.00,,SKC,0.00,VWS V14.00,2013-04-08 10:46:00,
2013-04-08 04:52:00,39.5,28.7,29.51,East,88,0.0,3.0,65,0.00,,SKC,0.00,VWS V14.00,2013-04-08 10:52:00,
2013-04-08 04:57:00,39.5,28.7,29.50,East,87,2.0,4.0,65,0.00,,SKC,0.00,VWS V14.00,2013-04-08 10:57:00,
2013-04-08 05:02:00,39.3,29.6,29.50,East,87,0.0,4.0,68,0.00,,SKC,0.00,VWS V14.00,2013-04-08 11:02:00,
2013-04-08 05:07:00,38.9,28.9,29.50,NE,51,3.0,3.0,67,0.00,,SKC,0.00,VWS V14.00,2013-04-08 11:07:00,
2013-04-08 05:12:00,38.8,29.9,29.50,NE,51,0.0,3.0,70,0.00,,SKC,0.00,VWS V14.00,2013-04-08 11:12:00,
2013-04-08 05:18:00,38.6,29.3,29.49,NE,51,1.0,3.0,69,0.00,,SKC,0.00,VWS V14.00,2013-04-08 11:18:00,
2013-04-08 05:23:00,38.4,29.5,29.49,NE,51,0.0,3.0,70,0.00,,SKC,0.00,VWS V14.00,2013-04-08 11:23:00,
2013-04-08 05:28:00,38.1,29.9,29.48,NE,51,2.0,4.0,72,0.00,,SKC,0.00,VWS V14.00,2013-04-08 11:28:00,
2013-04-08 05:34:00,37.9,30.0,29.48,NE,51,0.0,0.0,73,0.00,,SKC,0.00,VWS V14.00,2013-04-08 11:34:00,
2013-04-08 05:39:00,37.6,28.7,29.48,NE,51,1.0,2.0,70,0.00,,SKC,0.00,VWS V14.00,2013-04-08 11:39:00,
2013-04-08 05:44:00,37.8,28.9,29.49,NE,51,0.0,2.0,70,0.00,,SKC,0.00,VWS V14.00,2013-04-08 11:44:00,
2013-04-08 05:49:00,37.9,29.4,29.48,NE,51,2.0,3.0,71,0.00,,SKC,0.00,VWS V14.00,2013-04-08 11:49:00,
2013-04-08 05:55:00,37.8,29.9,29.48,NE,51,0.0,3.0,73,0.00,,SKC,0.00,VWS V14.00,2013-04-08 11:55:00,
2013-04-08 06:00:00,37.6,29.4,29.47,NE,56,0.0,3.0,72,0.00,,SKC,0.00,VWS V14.00,2013-04-08 12:00:00,
2013-04-08 06:05:00,37.6,30.1,29.47,NE,56,0.0,0.0,74,0.00,,SKC,0.00,VWS V14.00,2013-04-08 12:05:00,
2013-04-08 06:10:00,37.5,29.3,29.47,NE,56,0.0,2.0,72,0.00,,SKC,0.00,VWS V14.00,2013-04-08 12:10:00,
2013-04-08 06:15:00,37.5,29.3,29.47,NE,56,2.0,3.0,72,0.00,,SKC,0.00,VWS V14.00,2013-04-08 12:15:00,
2013-04-08 06:21:00,37.6,29.7,29.47,NE,56,0.0,3.0,73,0.00,,SKC,0.00,VWS V14.00,2013-04-08 12:21:00,
2013-04-08 06:26:00,37.7,30.2,29.46,NE,56,0.0,3.0,74,0.00,,SKC,0.00,VWS V14.00,2013-04-08 12:26:00,
2013-04-08 06:32:00,37.3,29.8,29.46,NE,56,2.0,3.0,74,0.00,,SKC,0.00,VWS V14.00,2013-04-08 12:32:00,
2013-04-08 06:37:00,37.5,30.0,29.46,ENE,63,1.0,3.0,74,0.00,,SKC,0.00,VWS V14.00,2013-04-08 12:37:00,
2013-04-08 06:43:00,37.3,29.5,29.46,ENE,63,0.0,3.0,73,0.00,,SKC,0.00,VWS V14.00,2013-04-08 12:43:00,
2013-04-08 06:48:00,37.2,29.4,29.46,ENE,63,0.0,3.0,73,0.00,,SKC,0.00,VWS V14.00,2013-04-08 12:48:00,
2013-04-08 06:54:00,37.3,29.5,29.46,ENE,63,0.0,3.0,73,0.00,,SKC,0.00,VWS V14.00,2013-04-08 12:54:00,
2013-04-08 06:59:00,37.1,29.9,29.46,ENE,63,0.0,3.0,75,0.00,,SKC,0.00,VWS V14.00,2013-04-08 12:59:00,
2013-04-08 07:04:00,36.9,30.0,29.46,ENE,63,2.0,3.0,76,0.00,,SKC,0.00,VWS V14.00,2013-04-08 13:04:00,
2013-04-08 07:09:00,36.7,29.9,29.46,ENE,63,0.0,3.0,76,0.00,,SKC,0.00,VWS V14.00,2013-04-08 13:09:00,
2013-04-08 07:14:00,36.7,29.5,29.46,NE,55,4.0,5.0,75,0.00,,SKC,0.00,VWS V14.00,2013-04-08 13:14:00,
2013-04-08 07:20:00,37.1,29.9,29.46,ENE,59,0.0,5.0,75,0.00,,SKC,0.00,VWS V14.00,2013-04-08 13:20:00,
2013-04-08 07:25:00,37.1,29.6,29.46,ENE,59,2.0,5.0,74,0.00,,SKC,0.00,VWS V14.00,2013-04-08 13:25:00,
2013-04-08 07:30:00,37.3,30.1,29.46,ENE,59,0.0,5.0,75,0.00,,SKC,0.00,VWS V14.00,2013-04-08 13:30:00,
2013-04-08 07:35:00,37.3,30.4,29.45,ENE,59,2.0,3.0,76,0.00,,SKC,0.00,VWS V14.00,2013-04-08 13:35:00,
2013-04-08 07:40:00,37.4,29.9,29.45,ENE,59,0.0,3.0,74,0.00,,SKC,0.00,VWS V14.00,2013-04-08 13:40:00,
2013-04-08 07:46:00,37.6,30.1,29.45,ENE,59,1.0,3.0,74,0.00,,SKC,0.00,VWS V14.00,2013-04-08 13:46:00,
2013-04-08 07:52:00,37.8,30.6,29.45,ENE,59,0.0,3.0,75,0.00,,SKC,0.00,VWS V14.00,2013-04-08 13:52:00,
2013-04-08 07:57:00,38.1,29.9,29.44,ENE,67,0.0,4.0,72,0.00,,SKC,0.00,VWS V14.00,2013-04-08 13:57:00,
2013-04-08 08:02:00,38.6,31.0,29.45,ENE,67,1.0,4.0,74,0.00,,SKC,0.00,VWS V14.00,2013-04-08 14:02:00,
2013-04-08 08:07:00,38.8,30.2,29.45,East,86,0.0,4.0,71,0.00,,SKC,0.00,VWS V14.00,2013-04-08 14:07:00,
2013-04-08 08:12:00,39.1,31.2,29.45,East,86,1.0,4.0,73,0.00,,SKC,0.00,VWS V14.00,2013-04-08 14:12:00,
2013-04-08 08:17:00,39.2,31.3,29.45,East,86,0.0,4.0,73,0.00,,SKC,0.00,VWS V14.00,2013-04-08 14:17:00,
2013-04-08 08:23:00,39.3,31.0,29.45,East,86,0.0,4.0,72,0.00,,SKC,0.00,VWS V14.00,2013-04-08 14:23:00,
2013-04-08 08:28:00,39.7,32.1,29.44,East,86,0.0,4.0,74,0.00,,SKC,0.00,VWS V14.00,2013-04-08 14:28:00,
2013-04-08 08:33:00,40.0,32.1,29.44,East,86,0.0,1.0,73,0.00,,SKC,0.00,VWS V14.00,2013-04-08 14:33:00,
2013-04-08 08:39:00,40.3,32.0,29.43,East,86,3.0,3.0,72,0.00,,SKC,0.00,VWS V14.00,2013-04-08 14:39:00,
2013-04-08 08:44:00,40.7,32.4,29.43,North,355,4.0,5.0,72,0.00,,SKC,0.00,VWS V14.00,2013-04-08 14:44:00,
2013-04-08 08:49:00,40.9,31.5,29.43,NE,34,1.0,5.0,69,0.00,,SKC,0.00,VWS V14.00,2013-04-08 14:49:00,
2013-04-08 08:54:00,41.5,32.1,29.43,NE,34,2.0,5.0,69,0.00,,SKC,0.00,VWS V14.00,2013-04-08 14:54:00,
2013-04-08 08:59:00,41.9,31.8,29.43,NE,34,0.0,5.0,67,0.00,,SKC,0.00,VWS V14.00,2013-04-08 14:59:00,
2013-04-08 09:04:00,42.3,31.4,29.43,NE,34,0.0,1.0,65,0.00,,SKC,0.00,VWS V14.00,2013-04-08 15:04:00,
2013-04-08 09:09:00,42.8,31.1,29.43,NE,34,0.0,2.0,63,0.00,,SKC,0.00,VWS V14.00,2013-04-08 15:09:00,
2013-04-08 09:15:00,43.5,31.4,29.42,West,265,0.0,2.0,62,0.00,,SKC,0.00,VWS V14.00,2013-04-08 15:15:00,
2013-04-08 09:20:00,44.0,32.2,29.42,West,265,0.0,2.0,63,0.00,,SKC,0.00,VWS V14.00,2013-04-08 15:20:00,
2013-04-08 09:27:00,44.5,32.3,29.42,West,265,1.0,2.0,62,0.00,,SKC,0.00,VWS V14.00,2013-04-08 15:27:00,
2013-04-08 09:32:00,44.9,31.9,29.41,West,265,0.0,2.0,60,0.00,,SKC,0.00,VWS V14.00,2013-04-08 15:32:00,
2013-04-08 09:37:00,45.2,31.3,29.41,West,265,0.0,0.0,58,0.00,,SKC,0.00,VWS V14.00,2013-04-08 15:37:00,
2013-04-08 09:42:00,45.6,31.3,29.41,West,265,0.0,0.0,57,0.00,,SKC,0.00,VWS V14.00,2013-04-08 15:42:00,
2013-04-08 09:47:00,46.0,31.2,29.41,West,265,0.0,0.0,56,0.00,,SKC,0.00,VWS V14.00,2013-04-08 15:47:00,
2013-04-08 09:52:00,46.3,31.0,29.41,West,265,0.0,3.0,55,0.00,,SKC,0.00,VWS V14.00,2013-04-08 15:52:00,
2013-04-08 09:58:00,46.6,31.8,29.41,West,265,0.0,3.0,56,0.00,,SKC,0.00,VWS V14.00,2013-04-08 15:58:00,
2013-04-08 10:03:00,46.9,31.6,29.40,West,265,0.0,0.0,55,0.00,,SKC,0.00,VWS V14.00,2013-04-08 16:03:00,
2013-04-08 10:08:00,47.1,31.8,29.40,West,265,0.0,1.0,55,0.00,,SKC,0.00,VWS V14.00,2013-04-08 16:08:00,
2013-04-08 10:13:00,47.4,31.1,29.40,West,265,0.0,2.0,53,0.00,,SKC,0.00,VWS V14.00,2013-04-08 16:13:00,
2013-04-08 10:19:00,47.7,31.4,29.40,West,265,0.0,2.0,53,0.00,,SKC,0.00,VWS V14.00,2013-04-08 16:19:00,
2013-04-08 10:24:00,48.1,31.3,29.40,West,265,0.0,2.0,52,0.00,,SKC,0.00,VWS V14.00,2013-04-08 16:24:00,
2013-04-08 10:30:00,48.4,31.6,29.40,West,265,0.0,2.0,52,0.00,,SKC,0.00,VWS V14.00,2013-04-08 16:30:00,
2013-04-08 10:35:00,48.6,31.3,29.39,West,265,0.0,2.0,51,0.00,,SKC,0.00,VWS V14.00,2013-04-08 16:35:00,
2013-04-08 10:40:00,48.9,30.6,29.39,West,265,0.0,2.0,49,0.00,,SKC,0.00,VWS V14.00,2013-04-08 16:40:00,
2013-04-08 10:45:00,49.2,30.4,29.39,West,265,0.0,2.0,48,0.00,,SKC,0.00,VWS V14.00,2013-04-08 16:45:00,
2013-04-08 10:50:00,49.4,31.1,29.39,West,265,0.0,2.0,49,0.00,,SKC,0.00,VWS V14.00,2013-04-08 16:50:00,
2013-04-08 10:55:00,49.7,31.3,29.39,West,265,0.0,2.0,49,0.00,,SKC,0.00,VWS V14.00,2013-04-08 16:55:00,
2013-04-08 11:00:00,49.9,31.0,29.39,West,265,0.0,2.0,48,0.00,,SKC,0.00,VWS V14.00,2013-04-08 17:00:00,
2013-04-08 11:05:00,50.1,31.7,29.39,West,265,0.0,1.0,49,0.00,,SKC,0.00,VWS V14.00,2013-04-08 17:05:00,
2013-04-08 11:10:00,50.5,32.1,29.38,West,265,1.0,2.0,49,0.00,,SKC,0.00,VWS V14.00,2013-04-08 17:10:00,
2013-04-08 11:15:00,50.7,31.7,29.38,West,265,0.0,2.0,48,0.00,,SKC,0.00,VWS V14.00,2013-04-08 17:15:00,
2013-04-08 11:22:00,51.0,33.5,29.38,West,265,0.0,2.0,51,0.00,,SKC,0.00,VWS V14.00,2013-04-08 17:22:00,
2013-04-08 11:27:00,51.2,32.7,29.38,West,265,0.0,2.0,49,0.00,,SKC,0.00,VWS V14.00,2013-04-08 17:27:00,
2013-04-08 11:32:00,51.6,32.6,29.37,West,261,0.0,0.0,48,0.00,,SKC,0.00,VWS V14.00,2013-04-08 17:32:00,
2013-04-08 11:37:00,52.2,32.6,29.36,West,261,0.0,4.0,47,0.00,,SKC,0.00,VWS V14.00,2013-04-08 17:37:00,
2013-04-08 11:42:00,52.8,32.6,29.36,West,261,2.0,4.0,46,0.00,,SKC,0.00,VWS V14.00,2013-04-08 17:42:00,
2013-04-08 11:47:00,53.3,29.6,29.35,NW,319,1.0,4.0,40,0.00,,SKC,0.00,VWS V14.00,2013-04-08 17:47:00,
2013-04-08 11:53:00,54.2,27.2,29.34,ENE,68,4.0,8.0,35,0.00,,SKC,0.00,VWS V14.00,2013-04-08 17:53:00,
2013-04-08 11:58:00,55.0,27.2,29.34,SE,145,0.0,8.0,34,0.00,,SKC,0.00,VWS V14.00,2013-04-08 17:58:00,
2013-04-08 12:04:00,55.5,26.9,29.34,South,180,0.0,3.0,33,0.00,,SKC,0.00,VWS V14.00,2013-04-08 18:04:00,
2013-04-08 12:09:00,55.8,26.4,29.34,South,180,3.0,3.0,32,0.00,,SKC,0.00,VWS V14.00,2013-04-08 18:09:00,
2013-04-08 12:14:00,56.1,25.1,29.34,WSW,250,8.0,10.0,30,0.00,,SKC,0.00,VWS V14.00,2013-04-08 18:14:00,
2013-04-08 12:20:00,55.9,25.7,29.33,NNE,14,7.0,14.0,31,0.00,,SKC,0.00,VWS V14.00,2013-04-08 18:20:00,
2013-04-08 12:25:00,55.6,25.5,29.33,NE,51,6.0,14.0,31,0.00,,SKC,0.00,VWS V14.00,2013-04-08 18:25:00,
2013-04-08 12:30:00,55.2,25.1,29.32,NNW,348,9.0,14.0,31,0.00,,SKC,0.00,VWS V14.00,2013-04-08 18:30:00,
2013-04-08 12:35:00,55.0,24.9,29.32,SE,132,0.0,4.0,31,0.00,,SKC,0.00,VWS V14.00,2013-04-08 18:35:00,
2013-04-08 12:41:00,54.9,24.9,29.32,SW,221,2.0,6.0,31,0.00,,SKC,0.00,VWS V14.00,2013-04-08 18:41:00,
2013-04-08 12:46:00,54.8,24.0,29.32,NE,47,0.0,6.0,30,0.00,,SKC,0.00,VWS V14.00,2013-04-08 18:46:00,
2013-04-08 12:51:00,54.5,27.4,29.32,NE,47,0.0,6.0,35,0.00,,SKC,0.00,VWS V14.00,2013-04-08 18:51:00,
2013-04-08 12:56:00,54.1,24.9,29.31,SSE,163,4.0,6.0,32,0.00,,SKC,0.00,VWS V14.00,2013-04-08 18:56:00,
2013-04-08 13:01:00,54.2,26.5,29.31,ESE,119,0.0,6.0,34,0.00,,SKC,0.00,VWS V14.00,2013-04-08 19:01:00,
2013-04-08 13:07:00,54.4,27.3,29.32,South,174,1.0,4.0,35,0.00,,SKC,0.00,VWS V14.00,2013-04-08 19:07:00,
2013-04-08 13:12:00,54.6,26.8,29.32,SSW,208,3.0,4.0,34,0.00,,SKC,0.00,VWS V14.00,2013-04-08 19:12:00,
2013-04-08 13:18:00,54.8,25.5,29.31,SE,126,4.0,7.0,32,0.00,,SKC,0.00,VWS V14.00,2013-04-08 19:18:00,
2013-04-08 13:23:00,54.8,24.8,29.31,SSW,196,2.0,10.0,31,0.00,,SKC,0.00,VWS V14.00,2013-04-08 19:23:00,
2013-04-08 13:28:00,54.8,26.3,29.31,SSW,213,1.0,10.0,33,0.00,,SKC,0.00,VWS V14.00,2013-04-08 19:28:00,
2013-04-08 13:33:00,54.6,26.8,29.31,SW,229,4.0,4.0,34,0.00,,SKC,0.00,VWS V14.00,2013-04-08 19:33:00,
2013-04-08 13:39:00,54.5,27.4,29.31,SSW,209,0.0,6.0,35,0.00,,SKC,0.00,VWS V14.00,2013-04-08 19:39:00,
2013-04-08 13:44:00,54.5,26.7,29.31,South,181,1.0,6.0,34,0.00,,SKC,0.00,VWS V14.00,2013-04-08 19:44:00,
2013-04-08 13:49:00,54.5,26.7,29.31,SSE,150,6.0,8.0,34,0.00,,SKC,0.00,VWS V14.00,2013-04-08 19:49:00,
2013-04-08 13:54:00,54.3,25.8,29.31,SSE,167,12.0,20.0,33,0.00,,SKC,0.00,VWS V14.00,2013-04-08 19:54:00,
2013-04-08 13:59:00,54.1,26.4,29.30,SSW,209,3.0,20.0,34,0.00,,SKC,0.00,VWS V14.00,2013-04-08 19:59:00,
2013-04-08 14:05:00,54.0,26.3,29.30,SW,224,1.0,5.0,34,0.00,,SKC,0.00,VWS V14.00,2013-04-08 20:05:00,
2013-04-08 14:10:00,53.9,27.6,29.30,South,181,3.0,5.0,36,0.00,,SKC,0.00,VWS V14.00,2013-04-08 20:10:00,
2013-04-08 14:15:00,53.7,26.7,29.30,SW,235,0.0,10.0,35,0.00,,SKC,0.00,VWS V14.00,2013-04-08 20:15:00,
2013-04-08 14:20:00,53.4,28.5,29.31,WSW,250,3.0,10.0,38,0.00,,SKC,0.00,VWS V14.00,2013-04-08 20:20:00,
2013-04-08 14:26:00,53.1,27.5,29.32,WSW,247,1.0,10.0,37,0.00,,SKC,0.00,VWS V14.00,2013-04-08 20:26:00,
2013-04-08 14:31:00,52.7,27.2,29.34,WSW,251,4.0,10.0,37,0.00,,SKC,0.00,VWS V14.00,2013-04-08 20:31:00,
2013-04-08 14:37:00,52.3,26.8,29.34,SE,133,1.0,11.0,37,0.00,,SKC,0.00,VWS V14.00,2013-04-08 20:37:00,
2013-04-08 14:42:00,51.7,28.8,29.34,WNW,298,4.0,13.0,41,0.00,,SKC,0.00,VWS V14.00,2013-04-08 20:42:00,
2013-04-08 14:48:00,50.5,30.0,29.33,North,10,8.0,26.0,45,0.00,,SKC,0.00,VWS V14.00,2013-04-08 20:48:00,
2013-04-08 14:53:00,49.8,30.4,29.34,NE,49,5.0,26.0,47,0.00,,SKC,0.00,VWS V14.00,2013-04-08 20:53:00,
2013-04-08 14:58:00,49.4,30.5,29.34,North,351,2.0,26.0,48,0.00,,SKC,0.00,VWS V14.00,2013-04-08 20:58:00,
2013-04-08 15:03:00,49.3,31.5,29.33,North,5,2.0,2.0,50,0.00,,SKC,0.00,VWS V14.00,2013-04-08 21:03:00,
2013-04-08 15:09:00,49.3,32.0,29.32,NNE,23,5.0,11.0,51,0.00,,SKC,0.00,VWS V14.00,2013-04-08 21:09:00,
2013-04-08 15:14:00,49.2,31.9,29.31,NNW,338,5.0,13.0,51,0.00,,SKC,0.00,VWS V14.00,2013-04-08 21:14:00,
2013-04-08 15:19:00,49.4,32.5,29.30,NW,321,10.0,13.0,52,0.00,,SKC,0.00,VWS V14.00,2013-04-08 21:19:00,
2013-04-08 15:25:00,49.7,32.3,29.30,WNW,286,1.0,13.0,51,0.00,,SKC,0.00,VWS V14.00,2013-04-08 21:25:00,
2013-04-08 15:30:00,50.2,33.3,29.30,WNW,300,0.0,13.0,52,0.00,,SKC,0.00,VWS V14.00,2013-04-08 21:30:00,
2013-04-08 15:35:00,50.6,32.7,29.30,NW,315,4.0,5.0,50,0.00,,SKC,0.00,VWS V14.00,2013-04-08 21:35:00,
2013-04-08 15:41:00,50.8,32.8,29.29,ENE,65,1.0,5.0,50,0.00,,SKC,0.00,VWS V14.00,2013-04-08 21:41:00,
2013-04-08 15:46:00,50.8,32.8,29.28,NW,312,0.0,5.0,50,0.00,,SKC,0.00,VWS V14.00,2013-04-08 21:46:00,
2013-04-08 15:52:00,50.9,32.4,29.28,NNE,13,0.0,5.0,49,0.00,,SKC,0.00,VWS V14.00,2013-04-08 21:52:00,
2013-04-08 15:57:00,51.0,32.5,29.27,WNW,284,0.0,5.0,49,0.00,,SKC,0.00,VWS V14.00,2013-04-08 21:57:00,
2013-04-08 16:02:00,51.1,33.1,29.27,NNE,23,0.0,5.0,50,0.00,,SKC,0.00,VWS V14.00,2013-04-08 22:02:00,
2013-04-08 16:07:00,51.1,32.1,29.26,NNW,342,5.0,6.0,48,0.00,,SKC,0.00,VWS V14.00,2013-04-08 22:07:00,
2013-04-08 16:12:00,50.8,32.3,29.26,NNE,24,3.0,7.0,49,0.00,,SKC,0.00,VWS V14.00,2013-04-08 22:12:00,
2013-04-08 16:17:00,50.6,33.2,29.25,NNE,26,1.0,7.0,51,0.00,,SKC,0.00,VWS V14.00,2013-04-08 22:17:00,
2013-04-08 16:23:00,50.5,32.6,29.25,ENE,63,1.0,7.0,50,0.00,,SKC,0.00,VWS V14.00,2013-04-08 22:23:00,
2013-04-08 16:28:00,50.6,32.7,29.25,East,98,0.0,7.0,50,0.00,,SKC,0.00,VWS V14.00,2013-04-08 22:28:00,
2013-04-08 16:34:00,50.6,32.7,29.26,East,98,2.0,2.0,50,0.00,,SKC,0.00,VWS V14.00,2013-04-08 22:34:00,
2013-04-08 16:39:00,50.6,32.7,29.26,East,98,1.0,2.0,50,0.00,,SKC,0.00,VWS V14.00,2013-04-08 22:39:00,
2013-04-08 16:44:00,50.7,33.2,29.26,East,98,1.0,4.0,51,0.00,,SKC,0.00,VWS V14.00,2013-04-08 22:44:00,
2013-04-08 16:50:00,50.8,32.3,29.26,South,188,4.0,8.0,49,0.00,,SKC,0.00,VWS V14.00,2013-04-08 22:50:00,
2013-04-08 16:55:00,51.0,31.0,29.26,North,355,1.0,8.0,46,0.00,,SKC,0.00,VWS V14.00,2013-04-08 22:55:00,
2013-04-08 17:01:00,51.7,31.1,29.26,SW,227,4.0,12.0,45,0.00,,SKC,0.00,VWS V14.00,2013-04-08 23:01:00,
2013-04-08 17:06:00,52.1,30.9,29.26,WSW,253,4.0,11.0,44,0.00,,SKC,0.00,VWS V14.00,2013-04-08 23:06:00,
2013-04-08 17:12:00,52.1,30.3,29.27,SW,232,15.0,18.0,43,0.00,,SKC,0.00,VWS V14.00,2013-04-08 23:12:00,
2013-04-08 17:17:00,51.9,31.8,29.27,WSW,254,4.0,18.0,46,0.00,,SKC,0.00,VWS V14.00,2013-04-08 23:17:00,
2013-04-08 17:22:00,51.4,32.4,29.27,WSW,238,5.0,18.0,48,0.00,,SKC,0.00,VWS V14.00,2013-04-08 23:22:00,
2013-04-08 17:27:00,50.8,32.8,29.26,SW,227,3.0,18.0,50,0.00,,SKC,0.00,VWS V14.00,2013-04-08 23:27:00,
2013-04-08 17:32:00,50.5,32.6,29.27,SSW,210,4.0,4.0,50,0.00,,SKC,0.00,VWS V14.00,2013-04-08 23:32:00,
2013-04-08 17:37:00,50.4,32.5,29.27,SSW,200,7.0,12.0,50,0.00,,SKC,0.00,VWS V14.00,2013-04-08 23:37:00,
2013-04-08 17:43:00,50.3,32.4,29.27,South,181,4.0,12.0,50,0.00,,SKC,0.00,VWS V14.00,2013-04-08 23:43:00,
2013-04-08 17:48:00,50.3,32.9,29.28,SW,221,9.0,12.0,51,0.00,,SKC,0.00,VWS V14.00,2013-04-08 23:48:00,
2013-04-08 17:53:00,49.6,34.6,29.29,South,183,5.0,12.0,56,0.00,,SKC,0.00,VWS V14.00,2013-04-08 23:53:00,
2013-04-08 17:58:00,48.7,34.6,29.29,SW,221,3.0,12.0,58,0.00,,SKC,0.00,VWS V14.00,2013-04-08 23:58:00,
2013-04-08 18:03:00,48.1,35.7,29.30,SW,225,0.0,2.0,62,0.00,,SKC,0.00,VWS V14.00,2013-04-09 00:03:00,
2013-04-08 18:08:00,47.6,36.4,29.31,South,185,1.0,5.0,65,0.00,,SKC,0.00,VWS V14.00,2013-04-09 00:08:00,
2013-04-08 18:14:00,46.8,37.5,29.30,West,275,0.0,5.0,70,0.00,,SKC,0.00,VWS V14.00,2013-04-09 00:14:00,
2013-04-08 18:20:00,45.9,37.8,29.30,WSW,257,1.0,5.0,73,0.00,,SKC,0.00,VWS V14.00,2013-04-09 00:20:00,
2013-04-08 18:25:00,45.2,37.8,29.30,WSW,252,0.0,5.0,75,0.00,,SKC,0.01,VWS V14.00,2013-04-09 00:25:00,
2013-04-08 18:30:00,44.6,38.5,29.31,WNW,298,0.0,5.0,79,0.00,,SKC,0.01,VWS V14.00,2013-04-09 00:30:00,
2013-04-08 18:35:00,44.2,38.4,29.32,WNW,298,0.0,0.0,80,0.06,,SKC,0.02,VWS V14.00,2013-04-09 00:35:00,
2013-04-08 18:40:00,43.9,39.4,29.32,WNW,298,0.0,1.0,84,0.09,,SKC,0.03,VWS V14.00,2013-04-09 00:40:00,
2013-04-08 18:46:00,43.5,39.0,29.32,WNW,298,0.0,1.0,84,0.10,,SKC,0.04,VWS V14.00,2013-04-09 00:46:00,
2013-04-08 18:52:00,43.0,39.1,29.32,WNW,298,0.0,2.0,86,0.22,,SKC,0.07,VWS V14.00,2013-04-09 00:52:00,
2013-04-08 18:57:00,42.6,39.0,29.32,NW,305,1.0,4.0,87,0.14,,SKC,0.08,VWS V14.00,2013-04-09 00:57:00,
2013-04-08 19:02:00,42.1,38.2,29.33,NNE,26,3.0,5.0,86,0.14,,SKC,0.09,VWS V14.00,2013-04-09 01:02:00,
2013-04-08 19:07:00,41.6,37.7,29.32,NNE,22,3.0,4.0,86,0.15,,SKC,0.10,VWS V14.00,2013-04-09 01:07:00,
2013-04-08 19:12:00,41.3,37.7,29.33,NNE,23,0.0,4.0,87,0.18,,SKC,0.12,VWS V14.00,2013-04-09 01:12:00,
2013-04-08 19:18:00,41.0,37.7,29.33,NNE,23,0.0,4.0,88,0.15,,SKC,0.13,VWS V14.00,2013-04-09 01:18:00,
2013-04-08 19:23:00,40.7,37.7,29.33,NNE,23,0.0,4.0,89,0.10,,SKC,0.14,VWS V14.00,2013-04-09 01:23:00,
2013-04-08 19:28:00,40.5,37.5,29.33,NNE,23,0.0,4.0,89,0.17,,SKC,0.15,VWS V14.00,2013-04-09 01:28:00,
2013-04-08 19:33:00,40.1,37.1,29.33,NNE,29,1.0,2.0,89,0.12,,SKC,0.16,VWS V14.00,2013-04-09 01:33:00,
2013-04-08 19:38:00,39.8,36.8,29.33,NNE,29,0.0,3.0,89,0.07,,SKC,0.16,VWS V14.00,2013-04-09 01:38:00,
2013-04-08 19:43:00,39.6,36.6,29.33,NNE,29,0.0,3.0,89,0.07,,SKC,0.17,VWS V14.00,2013-04-09 01:43:00,
2013-04-08 19:49:00,39.4,36.4,29.34,NNE,29,2.0,3.0,89,0.06,,SKC,0.17,VWS V14.00,2013-04-09 01:49:00,
2013-04-08 19:55:00,39.2,36.2,29.33,NNE,14,0.0,6.0,89,0.04,,SKC,0.17,VWS V14.00,2013-04-09 01:55:00,
2013-04-08 20:00:00,39.1,36.4,29.33,NNE,14,1.0,6.0,90,0.00,,SKC,0.18,VWS V14.00,2013-04-09 02:00:00,
2013-04-08 20:05:00,39.0,36.3,29.34,North,5,0.0,1.0,90,0.00,,SKC,0.18,VWS V14.00,2013-04-09 02:05:00,
2013-04-08 20:10:00,39.0,36.3,29.34,North,5,0.0,1.0,90,0.00,,SKC,0.18,VWS V14.00,2013-04-09 02:10:00,
2013-04-08 20:15:00,39.0,36.6,29.34,North,5,0.0,1.0,91,0.00,,SKC,0.18,VWS V14.00,2013-04-09 02:15:00,
2013-04-08 20:20:00,38.9,36.5,29.34,North,5,1.0,2.0,91,0.00,,SKC,0.18,VWS V14.00,2013-04-09 02:20:00,
2013-04-08 20:25:00,38.8,36.4,29.35,North,5,1.0,2.0,91,0.00,,SKC,0.18,VWS V14.00,2013-04-09 02:25:00,
2013-04-08 20:30:00,38.7,36.3,29.34,NE,42,0.0,2.0,91,0.00,,SKC,0.18,VWS V14.00,2013-04-09 02:30:00,
2013-04-08 20:35:00,38.7,36.6,29.34,NE,42,1.0,4.0,92,0.00,,SKC,0.18,VWS V14.00,2013-04-09 02:35:00,
2013-04-08 20:40:00,38.7,36.6,29.35,NE,42,0.0,4.0,92,0.00,,SKC,0.18,VWS V14.00,2013-04-09 02:40:00,
2013-04-08 20:47:00,38.6,36.5,29.35,NE,42,0.0,4.0,92,0.00,,SKC,0.18,VWS V14.00,2013-04-09 02:47:00,
2013-04-08 20:52:00,38.6,36.5,29.35,NE,42,1.0,4.0,92,0.00,,SKC,0.18,VWS V14.00,2013-04-09 02:52:00,
2013-04-08 20:57:00,38.6,36.5,29.35,NE,42,0.0,4.0,92,0.00,,SKC,0.18,VWS V14.00,2013-04-09 02:57:00,
2013-04-08 21:02:00,38.6,36.5,29.34,NE,42,0.0,4.0,92,0.00,,SKC,0.18,VWS V14.00,2013-04-09 03:02:00,
2013-04-08 21:07:00,38.6,36.8,29.35,NE,42,0.0,0.0,93,0.00,,SKC,0.18,VWS V14.00,2013-04-09 03:07:00,
2013-04-08 21:13:00,38.6,36.8,29.35,NE,42,1.0,2.0,93,0.00,,SKC,0.18,VWS V14.00,2013-04-09 03:13:00,
2013-04-08 21:18:00,38.6,36.8,29.36,NE,42,0.0,2.0,93,0.00,,SKC,0.18,VWS V14.00,2013-04-09 03:18:00,
2013-04-08 21:23:00,38.6,36.8,29.36,NE,42,0.0,2.0,93,0.00,,SKC,0.18,VWS V14.00,2013-04-09 03:23:00,
2013-04-08 21:28:00,38.6,36.8,29.36,NE,42,0.0,2.0,93,0.00,,SKC,0.18,VWS V14.00,2013-04-09 03:28:00,
2013-04-08 21:34:00,38.6,36.8,29.37,NE,42,0.0,0.0,93,0.00,,SKC,0.18,VWS V14.00,2013-04-09 03:34:00,
2013-04-08 21:39:00,38.6,36.8,29.38,NE,42,2.0,2.0,93,0.00,,SKC,0.18,VWS V14.00,2013-04-09 03:39:00,
2013-04-08 21:44:00,38.6,37.0,29.39,NE,42,1.0,2.0,94,0.00,,SKC,0.19,VWS V14.00,2013-04-09 03:44:00,
2013-04-08 21:50:00,38.7,37.1,29.36,ENE,74,0.0,7.0,94,0.10,,SKC,0.20,VWS V14.00,2013-04-09 03:50:00,
2013-04-08 21:55:00,38.7,37.1,29.36,ENE,74,0.0,7.0,94,0.14,,SKC,0.21,VWS V14.00,2013-04-09 03:55:00,
2013-04-08 22:00:00,38.7,37.1,29.37,ENE,74,0.0,7.0,94,0.11,,SKC,0.22,VWS V14.00,2013-04-09 04:00:00,
2013-04-08 22:02:00,38.7,37.1,29.37,ESE,123,0.0,7.0,94,0.09,,SKC,0.22,VWS V14.00,2013-04-09 04:02:00,
2013-04-08 22:08:00,38.6,37.0,29.36,East,88,2.0,4.0,94,0.05,,SKC,0.22,VWS V14.00,2013-04-09 04:08:00,
2013-04-08 22:12:00,38.6,37.0,29.36,ENE,62,5.0,5.0,94,0.04,,SKC,0.22,VWS V14.00,2013-04-09 04:12:00,
2013-04-08 22:17:00,38.7,36.8,29.35,ENE,69,0.0,6.0,93,0.00,,SKC,0.22,VWS V14.00,2013-04-09 04:17:00,
2013-04-08 22:22:00,38.8,37.0,29.35,NNE,19,2.0,6.0,93,0.00,,SKC,0.22,VWS V14.00,2013-04-09 04:22:00,
2013-04-08 22:28:00,38.7,36.6,29.35,NNE,19,0.0,6.0,92,0.00,,SKC,0.22,VWS V14.00,2013-04-09 04:28:00,
2013-04-08 22:33:00,38.6,36.5,29.36,NNE,19,0.0,0.0,92,0.00,,SKC,0.22,VWS V14.00,2013-04-09 04:33:00,
2013-04-08 22:38:00,38.3,36.2,29.36,NNE,19,0.0,0.0,92,0.00,,SKC,0.22,VWS V14.00,2013-04-09 04:38:00,
2013-04-08 22:44:00,38.1,36.0,29.36,NE,45,0.0,4.0,92,0.00,,SKC,0.22,VWS V14.00,2013-04-09 04:44:00,
2013-04-08 22:49:00,37.9,36.1,29.36,NE,45,0.0,4.0,93,0.00,,SKC,0.22,VWS V14.00,2013-04-09 04:49:00,
2013-04-08 22:54:00,37.6,35.8,29.36,NE,45,2.0,4.0,93,0.00,,SKC,0.22,VWS V14.00,2013-04-09 04:54:00,
2013-04-08 22:59:00,37.6,36.0,29.36,ENE,72,0.0,4.0,94,0.00,,SKC,0.22,VWS V14.00,2013-04-09 04:59:00,
2013-04-08 23:05:00,37.7,36.1,29.36,ENE,59,0.0,0.0,94,0.00,,SKC,0.22,VWS V14.00,2013-04-09 05:05:00,
2013-04-08 23:10:00,37.7,36.1,29.35,ENE,59,0.0,2.0,94,0.00,,SKC,0.22,VWS V14.00,2013-04-09 05:10:00,
2013-04-08 23:16:00,37.7,36.1,29.36,ENE,59,0.0,2.0,94,0.00,,SKC,0.22,VWS V14.00,2013-04-09 05:16:00,
2013-04-08 23:21:00,37.8,36.2,29.35,ENE,59,0.0,2.0,94,0.00,,SKC,0.22,VWS V14.00,2013-04-09 05:21:00,
2013-04-08 23:27:00,37.8,36.2,29.36,East,83,0.0,3.0,94,0.00,,SKC,0.22,VWS V14.00,2013-04-09 05:27:00,
2013-04-08 23:33:00,37.9,36.3,29.37,East,83,0.0,0.0,94,0.00,,SKC,0.22,VWS V14.00,2013-04-09 05:33:00,
2013-04-08 23:38:00,37.9,36.3,29.37,East,83,0.0,1.0,94,0.00,,SKC,0.22,VWS V14.00,2013-04-09 05:38:00,
2013-04-08 23:43:00,37.8,36.2,29.37,East,83,2.0,2.0,94,0.00,,SKC,0.22,VWS V14.00,2013-04-09 05:43:00,
2013-04-08 23:48:00,37.9,36.6,29.37,East,83,0.0,2.0,95,0.00,,SKC,0.22,VWS V14.00,2013-04-09 05:48:00,
2013-04-08 23:54:00,37.9,36.6,29.38,East,83,0.0,2.0,95,0.00,,SKC,0.22,VWS V14.00,2013-04-09 05:54:00,
2013-04-08 23:59:00,37.9,36.6,29.40,East,83,0.0,2.0,95,0.00,,SKC,0.22,VWS V14.00,2013-04-09 05:59:00,